Photometre #719[NE_1.6] Dunkerque AOT

File : 20200924_719.hum

24/09/2020,06:37:59,TEMP=12.3,BA=5.60,STAT.A=0.0,ExtBa=13.91
24/09/2020,06:42:08,TEMP=12.6,BA=5.48,STAT.A=0.0,ExtBa=13.89
24/09/2020,06:46:58,TEMP=12.7,BA=5.48,STAT.A=0.0,ExtBa=13.88
24/09/2020,06:52:44,TEMP=12.9,BA=5.60,STAT.A=0.0,ExtBa=13.88
24/09/2020,06:59:43,TEMP=13.2,BA=5.60,STAT.A=0.0,ExtBa=13.90
24/09/2020,07:08:21,TEMP=13.6,BA=5.40,STAT.A=0.0,ExtBa=13.92
24/09/2020,07:19:20,TEMP=13.6,BA=5.44,STAT.B=0.0,ExtBa=13.93
24/09/2020,07:24:37,TEMP=13.4,BA=5.40,STAT.A=0.0,ExtBa=13.92
24/09/2020,07:30:33,TEMP=13.5,BA=5.60,STAT.A=0.0,ExtBa=13.91
24/09/2020,07:37:17,TEMP=14.0,BA=5.60,STAT.A=0.0,ExtBa=13.92
24/09/2020,07:44:59,TEMP=14.2,BA=5.60,STAT.A=0.0,ExtBa=13.92
24/09/2020,07:53:54,TEMP=14.8,BA=5.60,STAT.C=0.0,ExtBa=13.92
24/09/2020,08:08:09,TEMP=15.6,BA=5.36,STAT.A=0.0,ExtBa=12.75
24/09/2020,08:16:54,TEMP=15.2,BA=5.36,STAT.A=0.0,ExtBa=13.07
24/09/2020,08:32:14,TEMP=14.7,BA=5.60,STAT.A=0.0,ExtBa=13.41
24/09/2020,08:42:56,TEMP=15.1,BA=5.60,STAT.F,ExtBa=13.55
24/09/2020,08:57:55,TEMP=15.3,BA=5.60,STAT.D=0.0,ExtBa=13.81
24/09/2020,09:12:55,TEMP=15.8,BA=5.60,STAT.D=0.0,ExtBa=13.95
24/09/2020,09:27:55,TEMP=16.0,BA=5.60,STAT.D=0.0,ExtBa=13.96
24/09/2020,09:42:57,TEMP=16.1,BA=5.60,STAT.F,ExtBa=13.91
24/09/2020,09:57:55,TEMP=16.7,BA=5.60,STAT.D=0.0,ExtBa=13.94
24/09/2020,10:12:55,TEMP=17.1,BA=5.60,STAT.D=0.0,ExtBa=13.93
24/09/2020,10:27:55,TEMP=17.5,BA=5.60,STAT.D=0.0,ExtBa=13.92
24/09/2020,10:42:57,TEMP=12.4,BA=5.60,STAT.F,ExtBa=13.88
24/09/2020,10:57:55,TEMP=11.2,BA=5.60,STAT.D=0.0,ExtBa=13.92
24/09/2020,11:12:55,TEMP=11.1,BA=5.60,STAT.D=0.0,ExtBa=13.92
24/09/2020,11:27:55,TEMP=11.1,BA=5.60,STAT.D=0.0,ExtBa=13.92
24/09/2020,11:42:57,TEMP=11.3,BA=5.60,STAT.F,ExtBa=13.88
24/09/2020,11:57:55,TEMP=11.7,BA=5.60,STAT.D=0.0,ExtBa=13.92
24/09/2020,12:12:55,TEMP=11.9,BA=5.60,STAT.D=0.0,ExtBa=13.92
24/09/2020,12:27:55,TEMP=13.8,BA=5.60,STAT.D=0.0,ExtBa=13.92
24/09/2020,12:42:57,TEMP=14.5,BA=5.60,STAT.F,ExtBa=13.89
24/09/2020,12:57:55,TEMP=13.5,BA=5.60,STAT.D=0.0,ExtBa=13.92
24/09/2020,13:12:55,TEMP=13.2,BA=5.60,STAT.D=0.0,ExtBa=13.91
24/09/2020,13:27:55,TEMP=13.1,BA=5.60,STAT.D=0.0,ExtBa=13.92
24/09/2020,13:42:57,TEMP=13.9,BA=5.60,STAT.F,ExtBa=13.88
24/09/2020,13:57:55,TEMP=14.9,BA=5.60,STAT.D=0.0,ExtBa=13.92
24/09/2020,14:12:55,TEMP=15.4,BA=5.60,STAT.D=0.0,ExtBa=13.91
24/09/2020,14:27:55,TEMP=15.9,BA=5.60,STAT.D=0.0,ExtBa=13.92
24/09/2020,14:42:56,TEMP=16.5,BA=5.60,STAT.F,ExtBa=13.88
24/09/2020,14:53:38,TEMP=16.8,BA=5.60,STAT.A=0.0,ExtBa=13.91
24/09/2020,15:08:58,TEMP=16.8,BA=5.60,STAT.A=0.0,ExtBa=13.91
24/09/2020,15:21:30,TEMP=16.6,BA=5.60,STAT.A=0.0,ExtBa=13.91
24/09/2020,15:31:58,TEMP=17.3,BA=5.60,STAT.C=0.0,ExtBa=13.90
24/09/2020,15:40:53,TEMP=17.5,BA=5.60,STAT.A=0.0,ExtBa=13.91
24/09/2020,15:48:35,TEMP=17.2,BA=5.60,STAT.A=0.0,ExtBa=13.90
24/09/2020,15:55:19,TEMP=17.1,BA=5.36,STAT.A=0.0,ExtBa=13.90
24/09/2020,16:01:15,TEMP=16.9,BA=5.60,STAT.A=0.0,ExtBa=13.89
24/09/2020,16:06:32,TEMP=16.8,BA=5.60,STAT.B=0.0,ExtBa=13.88
24/09/2020,16:17:31,TEMP=16.3,BA=5.60,STAT.A=0.0,ExtBa=13.89
24/09/2020,16:26:09,TEMP=16.2,BA=5.52,STAT.A=0.0,ExtBa=13.89
24/09/2020,16:33:08,TEMP=16.1,BA=5.60,STAT.A=0.0,ExtBa=13.89
24/09/2020,16:38:54,TEMP=16.0,BA=5.60,STAT.A=0.0,ExtBa=13.88
24/09/2020,16:43:44,TEMP=15.9,BA=5.36,STAT.A=0.0,ExtBa=13.87
24/09/2020,16:47:52,TEMP=15.8,BA=5.36,STAT.A=0.0,ExtBa=13.86